Location: Bullenkuhlen
(53.7689°N, 9.7495°E)
Time: 03:04:16
(UTC+00:00)

Cosmos 1833 Rocket - Pass Details

Date: 09 April 2020
Orbit: 834 x 838 km, 71.0° (Epoch: 26 May)

Event Time Altitude Azimuth Distance (km) Brightness Sun altitude
Exits shadow 22:20:58 26° 246° (WSW) 1,587 4.0 -26.9°
Maximum altitude 22:23:56 52° 310° (NW) 1,038 3.4 -27.0°
Drops below altitude 10° 22:29:27 10° 27° (NNE) 2,462 5.7 -27.2°
Sets 22:31:58 0° 33° (NNE) 3,400 6.4 -27.3°
